This is the latest recevied weather packets stored in our database for station/object K4VEB. If no packets are shown the sender has not sent any weather packets the latest 10 day(s).
| Time | Temp. | Humidity | Pressure | Rain* | Wind** | Luminosity | Snow |
|---|---|---|---|---|---|---|---|
| 1777746829 | 20° C | 93% | 1011.5 hPa | 7.87 mm | - | 18 W/m² | - |
| 1777746524 | 20° C | 92% | 1011.5 hPa | 22.86 mm | - | 16 W/m² | - |
| 1777746220 | 20° C | 91% | 1011.9 hPa | 30.73 mm | - | 13 W/m² | - |
| 1777745917 | 20.56° C | 88% | 1011.9 hPa | 13.72 mm | - | 11 W/m² | - |
| 1777745616 | 21.67° C | 84% | 1011.9 hPa | 0 mm | - | 14 W/m² | - |
| 1777745313 | 22.78° C | 78% | 1011.7 hPa | 0 mm | - | 11 W/m² | - |
| 1777745010 | 25° C | 68% | 1011.6 hPa | 0 mm | - | 7 W/m² | - |
| 1777744706 | 26.11° C | 64% | 1011.6 hPa | 0 mm | - | 5 W/m² | - |
| 1777744400 | 28.33° C | 66% | 1011.1 hPa | 0 mm | - | 24 W/m² | - |
| 1777744097 | 28.33° C | 66% | 1010.6 hPa | 0 mm | - | 46 W/m² | - |
| 1777743795 | 28.89° C | 65% | 1010.5 hPa | 0 mm | - | 45 W/m² | - |
| 1777743491 | 28.89° C | 64% | 1010.4 hPa | 0 mm | - | 51 W/m² | - |
| 1777743188 | 28.89° C | 63% | 1010.6 hPa | 0 mm | - | 73 W/m² | - |
| 1777742886 | 29.44° C | 62% | 1010.6 hPa | 0 mm | - | 103 W/m² | - |
| 1777742583 | 29.44° C | 61% | 1010.6 hPa | 0 mm | - | 168 W/m² | - |
| 1777742279 | 30° C | 61% | 1010.4 hPa | 0 mm | - | 205 W/m² | - |
| 1777741975 | 30° C | 59% | 1010.3 hPa | 0 mm | - | 218 W/m² | - |
| 1777741673 | 30° C | 59% | 1010.2 hPa | 0 mm | - | 262 W/m² | - |
| 1777741369 | 30.56° C | 57% | 1010.2 hPa | 0 mm | - | 334 W/m² | - |
| 1777741065 | 30.56° C | 57% | 1010.5 hPa | 0 mm | - | 500 W/m² | - |
| 1777740762 | 31.11° C | 58% | 1010.5 hPa | 0 mm | - | 539 W/m² | - |
| 1777740459 | 30.56° C | 58% | 1010.5 hPa | 0 mm | - | 697 W/m² | - |
| 1777740157 | 30.56° C | 58% | 1010.6 hPa | 0 mm | - | 713 W/m² | - |
| 1777739852 | 30.56° C | 59% | 1010.6 hPa | 0 mm | - | 663 W/m² | - |
| 1777739549 | 30.56° C | 59% | 1010.5 hPa | 0 mm | - | 641 W/m² | - |
* Rain latest hour (hover to see other rain measurements)
** Current wind speed in m/s (hover to see current wind gust speed)